Location: Fornova de Taro
(44.7000°N, 10.1000°E)
Time: 21:21:03
(UTC+00:00)

Cosmos 1943 Rocket - Pass Details

Date: 26 May 2022
Orbit: 810 x 845 km, 71.0° (Epoch: 02 July)

Event Time Altitude Azimuth Distance (km) Brightness Sun altitude
Rises 01:26:15 0° 332° (NNW) 3,412 5.8 -17.9°
Reaches altitude 10° 01:28:43 10° 330° (NNW) 2,475 5.0 -17.6°
Maximum altitude 01:34:22 70° 248° (WSW) 900 2.1 -17.1°
Enters shadow 01:39:23 13° 167° (SSE) 2,236 4.0 -16.6°
